Torna al catalogo

CZ-4 DEB

AttivoSSO
NORAD 26306·DEBRIS·🇨🇳 China

Lanciato Oct 14, 1999 da Taiyuan Satellite Launch Center

Loading…

Prossimi Passaggi (prossime 24 ore)

TLE

AggiornatoSource: Space-Track

Epoca: Sep 14, 2026, 21:46 UTC

1 26306U 99057GP  26257.90696502  .00000156  00000-0  63931-4 0  9994
2 26306  98.7356 307.6252 0094648 299.5399 241.3342 14.38238137386162

Traccia CZ-4 DEB in tempo reale con AllMySat

Download on the App Store